Time,TemperatureF,DewpointF,PressureIn,WindDirection,WindDirectionDegrees,WindSpeedMPH,WindSpeedGustMPH,Humidity,HourlyPrecipIn,Conditions,Clouds,dailyrainin,SoftwareType,DateUTC
2013-04-22 00:05:00,27.1,17.0,30.09,WNW,285,1.0,3.0,67,0.00,,,0.00,weatherlink.com 1.10,2013-04-22 06:05:00,
2013-04-22 00:20:00,27.4,18.0,30.09,WNW,293,1.0,2.0,67,0.00,,,0.00,weatherlink.com 1.10,2013-04-22 06:20:00,
2013-04-22 00:35:00,27.1,19.0,30.09,NW,322,1.0,4.0,71,0.00,,,0.00,weatherlink.com 1.10,2013-04-22 06:35:00,
2013-04-22 00:50:00,27.8,20.0,30.09,West,276,0.0,3.0,71,0.00,,,0.00,weatherlink.com 1.10,2013-04-22 06:50:00,
2013-04-22 01:05:00,28.2,20.0,30.08,NW,304,0.0,2.0,70,0.00,,,0.00,weatherlink.com 1.10,2013-04-22 07:05:00,
2013-04-22 01:20:00,28.6,20.0,30.09,NNW,339,0.0,0.0,69,0.00,,,0.00,weatherlink.com 1.10,2013-04-22 07:20:00,
2013-04-22 01:35:00,29.2,20.0,30.08,West,273,0.0,0.0,69,0.00,,,0.00,weatherlink.com 1.10,2013-04-22 07:35:00,
2013-04-22 01:50:00,31.8,26.0,30.07,WNW,288,4.0,8.0,80,0.00,,,0.00,weatherlink.com 1.10,2013-04-22 07:50:00,
2013-04-22 02:05:00,35.6,27.0,30.06,NNW,340,1.0,8.0,71,0.00,,,0.00,weatherlink.com 1.10,2013-04-22 08:05:00,
2013-04-22 02:20:00,33.4,27.0,30.06,North,352,5.0,7.0,78,0.00,,,0.00,weatherlink.com 1.10,2013-04-22 08:20:00,
2013-04-22 02:35:00,33.2,28.0,30.05,NNW,338,4.0,7.0,82,0.00,,,0.00,weatherlink.com 1.10,2013-04-22 08:35:00,
2013-04-22 02:50:00,32.9,28.0,30.04,NW,314,0.0,2.0,83,0.00,,,0.00,weatherlink.com 1.10,2013-04-22 08:50:00,
2013-04-22 03:05:00,32.7,28.0,30.02,WNW,291,1.0,3.0,84,0.00,,,0.00,weatherlink.com 1.10,2013-04-22 09:05:00,
2013-04-22 03:20:00,31.6,27.0,30.00,WNW,291,1.0,2.0,84,0.00,,,0.00,weatherlink.com 1.10,2013-04-22 09:20:00,
2013-04-22 03:35:00,30.5,27.0,29.99,NW,305,0.0,1.0,85,0.00,,,0.00,weatherlink.com 1.10,2013-04-22 09:35:00,
2013-04-22 03:50:00,29.7,26.0,29.99,West,263,0.0,2.0,87,0.00,,,0.00,weatherlink.com 1.10,2013-04-22 09:50:00,
2013-04-22 04:05:00,28.7,26.0,29.99,NW,312,2.0,3.0,88,0.00,,,0.00,weatherlink.com 1.10,2013-04-22 10:05:00,
2013-04-22 04:20:00,28.1,25.0,29.99,SW,224,0.0,1.0,87,0.00,,,0.00,weatherlink.com 1.10,2013-04-22 10:20:00,
2013-04-22 04:35:00,27.9,25.0,29.98,West,267,0.0,0.0,89,0.00,,,0.00,weatherlink.com 1.10,2013-04-22 10:35:00,
2013-04-22 04:50:00,26.9,24.0,29.98,WNW,293,2.0,3.0,90,0.00,,,0.00,weatherlink.com 1.10,2013-04-22 10:50:00,
2013-04-22 05:05:00,27.2,25.0,29.98,NNE,27,1.0,3.0,91,0.00,,,0.00,weatherlink.com 1.10,2013-04-22 11:05:00,
2013-04-22 05:20:00,27.7,25.0,29.97,SW,215,1.0,2.0,90,0.00,,,0.00,weatherlink.com 1.10,2013-04-22 11:20:00,
2013-04-22 05:35:00,27.9,25.0,29.97,WNW,283,0.0,0.0,90,0.00,,,0.00,weatherlink.com 1.10,2013-04-22 11:35:00,
2013-04-22 05:50:00,27.3,25.0,29.97,WNW,290,1.0,1.0,89,0.00,,,0.00,weatherlink.com 1.10,2013-04-22 11:50:00,
2013-04-22 06:06:00,27.7,25.0,29.97,WNW,291,0.0,1.0,90,0.00,,,0.00,weatherlink.com 1.10,2013-04-22 12:06:00,
2013-04-22 06:21:00,27.4,25.0,29.97,ESE,111,0.0,4.0,89,0.00,,,0.00,weatherlink.com 1.10,2013-04-22 12:21:00,
2013-04-22 06:36:00,27.1,25.0,29.97,SSE,155,0.0,0.0,90,0.00,,,0.00,weatherlink.com 1.10,2013-04-22 12:36:00,
2013-04-22 06:51:00,27.1,25.0,29.97,SSE,155,0.0,0.0,91,0.00,,,0.00,weatherlink.com 1.10,2013-04-22 12:51:00,
2013-04-22 07:06:00,27.7,26.0,29.97,SSE,155,0.0,0.0,91,0.00,,,0.00,weatherlink.com 1.10,2013-04-22 13:06:00,
2013-04-22 07:21:00,29.4,27.0,29.96,East,87,3.0,3.0,89,0.00,,,0.00,weatherlink.com 1.10,2013-04-22 13:21:00,
2013-04-22 07:36:00,30.1,27.0,29.96,SW,221,1.0,3.0,89,0.00,,,0.00,weatherlink.com 1.10,2013-04-22 13:36:00,
2013-04-22 07:51:00,32.5,29.0,29.95,ESE,103,4.0,5.0,86,0.00,,,0.00,weatherlink.com 1.10,2013-04-22 13:51:00,
2013-04-22 08:06:00,34.1,30.0,29.95,SE,134,3.0,4.0,83,0.00,,,0.00,weatherlink.com 1.10,2013-04-22 14:06:00,
2013-04-22 08:21:00,35.8,30.0,29.94,SE,142,1.0,4.0,79,0.00,,,0.00,weatherlink.com 1.10,2013-04-22 14:21:00,
2013-04-22 08:36:00,39.5,30.0,29.93,WNW,288,4.0,8.0,69,0.00,,,0.00,weatherlink.com 1.10,2013-04-22 14:36:00,
2013-04-22 08:51:00,43.1,26.0,29.92,NW,322,6.0,17.0,51,0.00,,,0.00,weatherlink.com 1.10,2013-04-22 14:51:00,
2013-04-22 09:06:00,44.9,26.0,29.92,NW,304,3.0,18.0,47,0.00,,,0.00,weatherlink.com 1.10,2013-04-22 15:06:00,
2013-04-22 09:21:00,45.2,24.0,29.91,NNW,338,3.0,20.0,43,0.00,,,0.00,weatherlink.com 1.10,2013-04-22 15:21:00,
2013-04-22 09:36:00,46.3,25.0,29.91,NW,313,6.0,15.0,44,0.00,,,0.00,weatherlink.com 1.10,2013-04-22 15:36:00,
2013-04-22 09:51:00,46.3,24.0,29.90,NW,304,9.0,22.0,42,0.00,,,0.00,weatherlink.com 1.10,2013-04-22 15:51:00,
2013-04-22 10:06:00,46.9,24.0,29.90,WNW,287,11.0,27.0,41,0.00,,,0.00,weatherlink.com 1.10,2013-04-22 16:06:00,
2013-04-22 10:21:00,47.1,23.0,29.90,WNW,297,15.0,24.0,39,0.00,,,0.00,weatherlink.com 1.10,2013-04-22 16:21:00,
2013-04-22 10:36:00,47.3,24.0,29.90,WNW,302,5.0,21.0,41,0.00,,,0.00,weatherlink.com 1.10,2013-04-22 16:36:00,
2013-04-22 10:51:00,47.9,21.0,29.89,NW,304,5.0,27.0,34,0.00,,,0.00,weatherlink.com 1.10,2013-04-22 16:51:00,
2013-04-22 11:06:00,48.5,20.0,29.89,WNW,293,5.0,24.0,32,0.00,,,0.00,weatherlink.com 1.10,2013-04-22 17:06:00,
2013-04-22 11:21:00,48.9,20.0,29.88,WNW,297,8.0,24.0,32,0.00,,,0.00,weatherlink.com 1.10,2013-04-22 17:21:00,
2013-04-22 11:36:00,49.5,19.0,29.88,NNW,335,10.0,18.0,30,0.00,,,0.00,weatherlink.com 1.10,2013-04-22 17:36:00,
2013-04-22 11:51:00,49.9,16.0,29.87,NNW,336,14.0,23.0,26,0.00,,,0.00,weatherlink.com 1.10,2013-04-22 17:51:00,
2013-04-22 12:06:00,51.0,16.0,29.86,WNW,287,17.0,22.0,25,0.00,,,0.00,weatherlink.com 1.10,2013-04-22 18:06:00,
2013-04-22 12:21:00,52.7,18.0,29.85,WNW,294,10.0,20.0,25,0.00,,,0.00,weatherlink.com 1.10,2013-04-22 18:21:00,
2013-04-22 12:36:00,52.0,13.0,29.85,NW,325,11.0,36.0,21,0.00,,,0.00,weatherlink.com 1.10,2013-04-22 18:36:00,
2013-04-22 12:52:00,52.0,14.0,29.84,WNW,288,17.0,30.0,22,0.00,,,0.00,weatherlink.com 1.10,2013-04-22 18:52:00,
2013-04-22 13:07:00,53.4,15.0,29.82,WNW,302,17.0,29.0,22,0.00,,,0.00,weatherlink.com 1.10,2013-04-22 19:07:00,
2013-04-22 13:22:00,52.7,15.0,29.81,NW,319,17.0,38.0,22,0.00,,,0.00,weatherlink.com 1.10,2013-04-22 19:22:00,
2013-04-22 13:37:00,52.7,15.0,29.80,West,281,3.0,20.0,22,0.00,,,0.00,weatherlink.com 1.10,2013-04-22 19:37:00,
2013-04-22 13:52:00,53.8,15.0,29.79,North,6,3.0,13.0,21,0.00,,,0.00,weatherlink.com 1.10,2013-04-22 19:52:00,
2013-04-22 14:07:00,54.2,15.0,29.78,South,190,4.0,9.0,21,0.00,,,0.00,weatherlink.com 1.10,2013-04-22 20:07:00,
2013-04-22 14:23:00,55.5,15.0,29.77,NW,308,8.0,21.0,20,0.00,,,0.00,weatherlink.com 1.10,2013-04-22 20:23:00,
2013-04-22 14:37:00,56.1,14.0,29.77,SSW,212,10.0,14.0,19,0.00,,,0.00,weatherlink.com 1.10,2013-04-22 20:37:00,
2013-04-22 14:52:00,55.2,15.0,29.77,West,278,6.0,17.0,20,0.00,,,0.00,weatherlink.com 1.10,2013-04-22 20:52:00,
2013-04-22 15:07:00,54.8,14.0,29.77,WSW,252,18.0,30.0,20,0.00,,,0.00,weatherlink.com 1.10,2013-04-22 21:07:00,
2013-04-22 15:22:00,56.1,15.0,29.76,WNW,282,14.0,23.0,20,0.00,,,0.00,weatherlink.com 1.10,2013-04-22 21:22:00,
2013-04-22 15:37:00,56.0,16.0,29.74,WNW,300,15.0,24.0,21,0.00,,,0.00,weatherlink.com 1.10,2013-04-22 21:37:00,
2013-04-22 15:53:00,55.4,16.0,29.75,WSW,238,3.0,20.0,21,0.00,,,0.00,weatherlink.com 1.10,2013-04-22 21:53:00,
2013-04-22 16:07:00,55.7,16.0,29.74,West,266,14.0,20.0,21,0.00,,,0.00,weatherlink.com 1.10,2013-04-22 22:07:00,
2013-04-22 16:22:00,55.9,14.0,29.74,WSW,238,6.0,31.0,19,0.00,,,0.00,weatherlink.com 1.10,2013-04-22 22:22:00,
2013-04-22 16:37:00,54.9,15.0,29.74,SW,231,5.0,23.0,21,0.00,,,0.00,weatherlink.com 1.10,2013-04-22 22:37:00,
2013-04-22 16:52:00,54.8,14.0,29.74,North,5,6.0,20.0,20,0.00,,,0.00,weatherlink.com 1.10,2013-04-22 22:52:00,
2013-04-22 17:07:00,55.5,15.0,29.73,NW,321,5.0,17.0,20,0.00,,,0.00,weatherlink.com 1.10,2013-04-22 23:07:00,
2013-04-22 17:22:00,55.1,15.0,29.74,SW,223,6.0,17.0,20,0.00,,,0.00,weatherlink.com 1.10,2013-04-22 23:22:00,
2013-04-22 17:37:00,53.6,15.0,29.73,WNW,299,14.0,20.0,22,0.00,,,0.00,weatherlink.com 1.10,2013-04-22 23:37:00,
2013-04-22 17:52:00,53.0,15.0,29.74,WSW,248,4.0,17.0,22,0.00,,,0.00,weatherlink.com 1.10,2013-04-22 23:52:00,
2013-04-22 18:07:00,53.6,14.0,29.73,SW,232,6.0,18.0,21,0.00,,,0.00,weatherlink.com 1.10,2013-04-23 00:07:00,
2013-04-22 18:22:00,53.6,15.0,29.73,West,274,4.0,15.0,22,0.00,,,0.00,weatherlink.com 1.10,2013-04-23 00:22:00,
2013-04-22 18:37:00,52.6,15.0,29.72,West,278,6.0,16.0,22,0.00,,,0.00,weatherlink.com 1.10,2013-04-23 00:37:00,
2013-04-22 18:52:00,51.0,14.0,29.72,NW,305,1.0,13.0,23,0.00,,,0.00,weatherlink.com 1.10,2013-04-23 00:52:00,
2013-04-22 19:07:00,50.9,14.0,29.72,NW,309,10.0,13.0,23,0.00,,,0.00,weatherlink.com 1.10,2013-04-23 01:07:00,
2013-04-22 19:22:00,49.9,13.0,29.71,West,266,5.0,9.0,23,0.00,,,0.00,weatherlink.com 1.10,2013-04-23 01:22:00,
2013-04-22 19:37:00,49.1,14.0,29.71,SSE,160,5.0,9.0,24,0.00,,,0.00,weatherlink.com 1.10,2013-04-23 01:37:00,
2013-04-22 19:52:00,47.7,14.0,29.72,WSW,244,0.0,2.0,26,0.00,,,0.00,weatherlink.com 1.10,2013-04-23 01:52:00,
2013-04-22 20:07:00,46.9,15.0,29.72,ENE,64,4.0,5.0,28,0.00,,,0.00,weatherlink.com 1.10,2013-04-23 02:07:00,
2013-04-22 20:22:00,47.2,14.0,29.72,NNW,330,2.0,12.0,26,0.00,,,0.00,weatherlink.com 1.10,2013-04-23 02:22:00,
2013-04-22 20:37:00,45.3,15.0,29.71,NNW,339,1.0,4.0,29,0.00,,,0.00,weatherlink.com 1.10,2013-04-23 02:37:00,
2013-04-22 20:52:00,44.0,15.0,29.71,North,352,2.0,3.0,31,0.00,,,0.00,weatherlink.com 1.10,2013-04-23 02:52:00,
2013-04-22 21:07:00,42.7,16.0,29.71,WNW,291,1.0,4.0,34,0.00,,,0.00,weatherlink.com 1.10,2013-04-23 03:07:00,
2013-04-22 21:22:00,40.4,16.0,29.71,NW,309,3.0,4.0,37,0.00,,,0.00,weatherlink.com 1.10,2013-04-23 03:22:00,
2013-04-22 21:37:00,38.9,17.0,29.71,WNW,284,0.0,4.0,42,0.00,,,0.00,weatherlink.com 1.10,2013-04-23 03:37:00,
2013-04-22 21:52:00,36.9,17.0,29.72,West,270,0.0,0.0,45,0.00,,,0.00,weatherlink.com 1.10,2013-04-23 03:52:00,
2013-04-22 22:07:00,36.7,18.0,29.72,NW,312,1.0,3.0,46,0.00,,,0.00,weatherlink.com 1.10,2013-04-23 04:07:00,
2013-04-22 22:22:00,35.9,17.0,29.72,WSW,246,0.0,2.0,47,0.00,,,0.00,weatherlink.com 1.10,2013-04-23 04:22:00,
2013-04-22 22:37:00,35.1,18.0,29.72,WSW,243,0.0,1.0,50,0.00,,,0.00,weatherlink.com 1.10,2013-04-23 04:37:00,
2013-04-22 22:52:00,34.0,19.0,29.71,NW,316,1.0,3.0,54,0.00,,,0.00,weatherlink.com 1.10,2013-04-23 04:52:00,
2013-04-22 23:07:00,31.6,19.0,29.70,NNW,342,2.0,5.0,60,0.00,,,0.00,weatherlink.com 1.10,2013-04-23 05:07:00,
2013-04-22 23:22:00,30.3,20.0,29.70,NW,322,2.0,7.0,65,0.00,,,0.00,weatherlink.com 1.10,2013-04-23 05:22:00,
2013-04-22 23:37:00,31.6,19.0,29.69,North,358,0.0,2.0,61,0.00,,,0.00,weatherlink.com 1.10,2013-04-23 05:37:00,
2013-04-22 23:52:00,29.9,19.0,29.69,West,270,1.0,5.0,65,0.00,,,0.00,weatherlink.com 1.10,2013-04-23 05:52:00,